Wind_Speed
26 26 27 28 29 29 28 28 27 26 25 24 23 23 22 21 20 19 19 19 18 18 17 16 16 15 15 14 14 14 13 13 13 13 13 12 12 12 12 11 11 11 11 11 12 12 12 11 11 11 12 12 13 13 14 16 17 18 18 19 19 20 20 21 21 21 20 20 20 21 21 22 23 23 22 22 21 21 20 19 18 16 16 16 16
25 24 24 26 28 29 29 29 29 28 27 26 26 25 25 23 22 22 21 21 21 21 20 19 18 18 17 17 17 16 16 15 15 15 15 14 14 14 13 13 13 13 13 12 13 13 13 13 13 13 13 13 13 13 14 15 16 17 18 18 19 19 19 20 20 20 20 20 19 19 19 20 20 21 21 21 20 19 18 18 18 17 15 14 13
25 24 24 25 25 27 28 29 29 29 28 27 27 27 26 26 25 24 24 23 23 23 23 22 21 20 20 19 19 19 19 18 17 17 17 17 16 16 15 15 15 15 14 14 14 14 14 14 14 14 14 14 15 15 15 16 16 17 18 19 19 19 19 19 19 20 20 20 20 19 18 18 18 19 19 19 18 17 17 17 18 17 16 14 12
25 25 24 24 24 25 27 28 28 28 26 25 25 25 25 25 25 25 25 25 25 25 25 24 23 22 22 22 21 21 21 20 20 19 19 19 19 18 18 18 17 17 16 16 16 15 15 15 15 16 16 16 16 16 17 17 17 18 19 20 20 20 20 20 20 20 20 21 21 20 19 18 18 18 18 18 17 17 17 17 16 15 15 14 13
25 24 23 23 23 25 26 27 27 25 23 21 21 22 23 23 23 24 24 24 25 25 26 26 24 23 23 24 24 23 23 23 22 22 22 22 21 21 21 20 20 19 19 18 18 17 16 16 16 16 17 17 17 17 18 18 18 19 19 20 21 21 21 21 21 20 20 21 21 22 21 20 19 18 18 18 18 17 16 16 15 15 14 14 14
25 23 23 23 24 24 24 25 25 23 20 19 18 19 20 20 21 22 23 23 23 24 25 25 25 24 24 24 25 25 25 25 24 24 24 24 24 24 23 23 22 22 21 21 20 20 19 18 18 17 18 18 19 19 19 19 19 20 20 20 21 21 22 22 22 21 21 21 22 23 23 23 22 21 20 18 18 18 17 16 16 15 14 14 14
25 24 23 22 22 23 23 23 22 20 19 18 17 17 18 19 19 20 21 22 22 23 24 24 25 24 24 25 25 26 26 26 26 25 25 26 26 26 25 25 24 24 24 23 23 22 21 21 20 20 19 19 19 20 20 21 21 21 21 21 21 22 22 22 22 22 22 22 23 23 24 24 24 23 22 21 19 18 18 18 17 17 16 14 13
26 26 25 23 22 22 22 21 20 20 19 18 18 18 18 18 19 19 20 21 22 22 22 23 24 25 25 25 26 27 27 27 27 27 27 27 28 28 27 27 26 26 26 26 25 24 24 23 22 22 21 21 21 21 21 22 22 22 22 22 22 22 22 23 23 23 23 23 23 24 24 25 25 25 25 24 23 21 20 19 19 19 18 17 16
28 28 27 25 22 21 21 20 20 20 19 18 17 17 17 18 18 19 20 20 21 21 21 22 23 24 24 25 26 27 27 27 28 28 28 29 29 29 29 29 28 27 27 27 27 26 26 25 24 24 23 23 23 23 23 23 23 23 23 23 23 23 23 23 24 24 24 25 25 25 25 25 25 26 26 26 25 24 23 22 21 20 20 21 20
30 28 27 24 21 20 21 21 21 21 20 18 16 15 16 16 17 19 20 20 20 21 21 22 22 23 23 24 25 26 27 27 28 29 29 30 30 30 30 30 30 29 29 28 28 28 27 27 26 25 25 25 25 24 24 24 24 24 24 24 24 24 24 24 25 25 26 26 26 26 26 25 25 26 27 27 27 27 26 24 23 22 22 23 23
30 28 26 24 23 22 21 21 22 22 21 19 18 17 15 15 16 17 18 19 19 20 21 21 22 22 23 24 25 25 26 26 27 28 29 30 31 31 31 32 32 31 31 30 29 29 29 28 28 27 27 27 26 26 26 26 26 26 26 26 26 26 26 26 26 26 27 27 27 28 28 27 26 26 27 28 28 28 28 27 26 25 24 23 24
32 30 27 26 26 25 23 22 22 22 22 22 21 19 17 15 15 15 16 17 17 18 19 20 21 21 22 23 24 24 25 26 27 28 29 30 30 31 31 32 32 32 32 32 31 30 30 30 30 29 29 29 29 29 29 28 28 28 28 27 27 28 28 28 28 28 28 28 28 29 29 29 28 28 28 28 28 29 29 29 28 27 26 25 25
34 33 31 31 31 29 27 25 24 23 23 23 23 23 20 17 15 15 15 16 17 17 18 18 19 20 21 22 23 23 24 26 27 28 29 29 30 31 31 32 32 32 32 32 32 31 31 31 31 31 31 31 31 31 31 31 30 30 30 30 30 30 30 30 30 30 30 29 29 29 30 30 29 30 30 30 29 29 30 30 30 29 28 28 28
37 35 35 35 35 34 32 30 28 26 25 25 25 25 23 19 16 16 16 17 18 17 17 17 18 19 20 20 21 22 23 24 26 27 29 29 30 31 31 32 32 32 32 32 32 32 31 31 32 32 32 32 33 33 34 33 33 32 31 32 32 32 32 31 32 32 31 31 30 30 31 31 31 31 32 31 30 29 29 30 30 30 30 29 29
42 40 38 38 37 35 35 34 31 29 28 28 27 26 24 20 18 17 17 18 19 19 18 18 18 18 19 19 20 21 22 23 25 26 28 29 30 31 32 32 33 33 33 33 32 32 31 31 32 32 33 33 33 34 34 34 34 33 32 32 32 32 32 32 32 33 32 32 31 31 32 33 33 32 32 32 31 30 29 29 29 30 30 29 30
44 43 42 40 39 38 38 37 34 32 32 30 28 27 25 21 19 18 19 20 20 21 20 19 19 18 19 19 20 20 20 21 23 24 26 28 30 31 32 32 32 33 33 33 33 32 31 31 31 32 32 32 32 32 32 32 32 32 31 31 32 32 31 32 33 34 33 32 32 32 32 33 34 34 33 32 31 30 30 29 29 29 30 29 30
45 46 44 41 39 39 39 38 36 34 34 31 28 26 24 22 20 19 20 20 21 22 22 22 21 20 20 20 20 20 20 20 21 22 24 26 28 30 31 31 32 32 32 32 32 32 32 31 31 31 31 29 29 30 31 31 31 31 31 31 31 30 29 31 33 34 34 33 33 33 33 34 34 34 33 32 31 30 30 30 30 30 30 30 30
48 47 44 42 41 40 39 37 36 35 34 31 29 27 25 23 21 20 21 21 22 23 24 24 24 23 22 21 21 21 20 20 21 22 23 25 27 29 30 30 31 32 31 31 31 31 32 32 32 32 31 29 29 30 31 31 30 30 30 31 30 29 29 31 33 34 35 35 35 35 34 33 33 34 34 33 31 31 31 31 31 31 31 31 31
52 50 46 43 42 41 38 36 35 35 33 30 29 30 28 24 22 22 22 22 23 24 25 26 26 26 25 23 22 22 21 21 21 22 22 23 25 27 28 30 31 31 31 30 30 30 31 32 33 33 33 31 31 31 32 32 31 31 31 31 31 31 31 33 34 35 36 36 36 34 33 32 33 33 34 33 31 31 31 32 32 32 32 32 32
56 53 48 44 42 40 38 36 36 36 33 31 30 30 28 25 23 23 23 24 24 26 27 27 28 28 28 26 25 24 23 22 22 22 22 22 24 26 27 29 30 30 30 30 30 30 30 31 32 33 33 33 33 32 32 32 32 33 34 34 34 33 33 33 34 35 35 35 34 34 33 33 33 34 33 32 31 31 32 32 32 33 33 32 32
58 55 51 46 43 42 39 38 38 38 36 34 31 27 26 24 23 23 24 26 27 28 28 29 29 30 30 29 28 27 25 24 23 23 22 22 23 24 26 28 29 29 30 30 30 30 30 31 31 32 33 33 33 33 32 32 34 35 36 36 35 34 34 33 33 34 34 35 34 34 34 34 34 34 33 32 31 31 32 32 32 32 32 33 32
59 56 54 49 46 44 42 40 39 38 38 37 34 30 27 25 25 26 27 29 29 30 31 31 31 32 32 31 31 30 28 26 25 24 23 23 23 23 25 26 27 28 29 29 29 29 30 31 32 32 33 33 33 33 34 35 37 37 37 36 37 37 36 35 34 34 35 35 36 36 35 35 34 34 33 33 32 32 32 32 31 31 31 32 30
58 57 54 49 47 47 46 43 40 38 39 40 40 38 34 31 30 30 31 32 32 33 33 33 33 33 33 33 33 32 30 29 28 26 24 23 23 24 25 25 25 27 28 28 28 29 30 31 32 33 33 34 34 35 37 38 39 39 39 39 39 40 39 39 37 37 36 37 37 37 37 36 35 34 34 34 34 34 33 33 32 32 31 29 28
59 58 54 51 50 51 50 48 44 42 42 43 43 42 39 36 35 34 34 35 36 36 36 36 35 35 35 34 34 34 33 32 31 29 27 24 24 25 25 25 25 26 28 28 27 27 29 30 31 32 32 34 35 36 37 38 39 40 40 41 42 42 42 42 41 40 39 38 38 38 37 37 36 36 36 36 36 36 35 34 34 32 31 29 28
62 60 58 55 53 53 53 52 49 46 46 46 44 42 41 39 38 37 37 38 38 39 39 38 38 37 37 36 36 35 34 34 33 32 29 27 26 25 25 25 25 25 27 27 26 26 27 28 29 30 31 32 34 35 36 37 38 39 40 41 42 43 43 43 43 42 42 41 39 38 38 38 38 37 37 37 37 37 37 36 35 34 33 32 32
64 63 62 60 58 56 55 54 53 50 47 45 43 42 41 41 41 41 40 41 41 42 42 42 41 40 39 39 38 37 36 35 35 34 31 29 28 27 26 26 26 25 26 26 25 25 26 27 28 29 30 31 32 33 34 35 37 38 39 40 41 42 42 43 43 43 43 42 41 40 40 40 40 39 39 38 38 39 39 38 38 37 37 37 37
67 67 66 65 63 62 59 57 56 54 51 48 46 44 43 43 43 43 43 43 44 44 45 45 44 42 42 41 40 39 39 38 37 36 33 31 30 28 28 28 27 26 26 25 25 26 27 27 28 28 29 30 31 32 33 34 35 37 38 38 39 40 41 42 42 43 43 43 43 42 42 43 43 42 42 41 40 40 41 40 40 40 40 40 40
70 70 70 69 67 66 63 61 59 57 55 52 50 48 46 46 45 45 45 45 46 47 48 47 46 45 45 44 42 41 41 42 41 37 33 31 30 30 30 29 28 27 26 25 25 26 27 27 28 28 28 29 29 30 32 33 34 35 37 38 39 40 40 41 42 43 43 43 44 44 43 44 44 44 43 42 42 42 42 42 42 42 42 42 41
76 75 74 72 70 68 67 64 61 59 56 53 52 51 50 49 48 48 47 48 49 51 50 48 49 50 49 48 45 43 44 45 43 38 34 33 32 32 31 29 28 27 25 24 25 26 27 27 28 28 27 28 28 29 30 31 32 34 35 36 38 39 40 41 42 43 43 43 44 44 43 43 44 44 43 42 42 43 43 42 42 43 43 42 41
81 79 77 75 72 70 68 66 63 61 59 57 56 55 54 52 50 50 50 51 52 53 51 50 51 53 53 51 48 46 47 48 45 40 37 35 34 33 31 30 29 27 25 24 26 27 27 27 27 27 26 27 27 28 29 30 31 32 33 34 35 37 38 39 40 40 41 42 43 43 42 43 43 43 43 42 42 42 42 42 42 41 42 41 40
84 81 78 76 74 72 70 68 65 63 62 61 60 59 58 55 52 52 52 53 54 55 54 53 53 54 55 53 51 50 50 50 47 44 41 38 35 34 32 31 30 28 26 26 27 27 26 26 25 25 25 26 27 28 28 29 30 31 31 32 33 34 35 36 36 37 38 39 40 41 41 41 42 42 42 41 41 42 42 41 40 40 40 40 39
84 82 79 77 75 73 71 69 67 65 64 62 61 60 59 56 54 53 53 54 56 59 57 54 54 55 56 55 54 54 54 53 51 48 43 39 37 35 33 32 31 28 27 27 27 26 25 24 24 25 26 27 28 29 29 30 31 31 31 32 32 33 34 34 35 35 36 37 38 39 39 40 40 40 40 40 41 41 42 41 39 38 38 38 37
85 82 79 77 76 75 73 71 69 67 65 63 61 60 58 56 54 53 55 56 57 58 57 55 55 56 58 58 58 57 57 56 54 50 46 42 39 36 34 33 31 29 28 28 27 26 26 25 26 27 28 29 29 30 31 32 32 31 31 32 32 33 33 34 34 35 36 37 38 39 39 39 38 38 38 39 40 41 41 39 37 37 37 37 36
85 82 80 78 77 76 73 71 69 67 64 61 58 57 55 54 53 54 56 57 57 57 57 57 57 57 59 60 60 60 61 60 57 53 49 45 41 38 36 34 31 30 29 29 28 27 27 26 27 28 29 29 30 31 32 33 33 32 32 33 33 33 34 34 35 35 36 37 38 39 39 39 38 38 38 40 40 41 40 39 38 37 37 36 36
85 83 81 79 77 75 73 70 68 65 62 60 58 56 54 53 55 58 58 55 54 55 57 58 59 59 60 61 61 62 64 63 60 57 53 48 43 40 37 34 32 31 30 30 30 29 28 28 28 28 28 29 31 32 33 33 34 33 33 33 33 34 34 35 36 36 37 37 37 38 39 39 39 38 38 39 40 40 40 39 39 39 39 37 37
86 84 81 78 77 74 71 68 64 60 60 61 61 59 57 56 58 62 61 57 56 57 58 59 60 59 59 59 61 64 65 65 62 59 55 50 46 42 39 36 33 31 30 31 31 30 29 29 29 29 29 30 32 34 34 34 34 33 33 33 33 34 34 35 36 37 38 38 39 39 40 40 40 40 39 39 40 40 40 40 40 40 39 39 39
87 85 82 78 75 72 70 67 63 59 58 60 61 60 60 62 63 64 63 60 59 59 60 59 59 57 55 56 58 60 62 63 64 62 57 52 48 45 40 36 34 32 32 32 32 31 31 31 30 30 31 32 33 35 35 35 34 33 33 33 33 33 34 35 36 37 38 40 41 41 42 42 43 43 42 41 40 40 40 41 41 41 40 40 41
87 85 83 79 75 72 71 68 64 59 57 58 58 59 61 65 65 63 62 61 60 59 58 58 57 56 54 55 57 59 58 58 61 62 57 52 50 48 42 37 35 35 35 34 33 33 33 32 32 33 34 34 35 35 36 35 35 34 33 33 34 35 35 36 38 39 40 41 42 43 43 44 43 43 42 42 41 41 42 42 42 42 42 43 44
87 86 84 80 76 74 72 67 62 59 58 57 57 58 62 64 63 61 60 60 60 58 58 57 56 55 54 54 58 60 58 54 56 58 56 52 50 48 42 38 37 37 36 35 35 35 35 34 34 35 36 35 35 36 36 36 35 35 35 35 36 36 37 38 39 41 42 43 44 45 45 45 44 44 44 44 43 44 45 46 46 46 46 46 47
87 86 84 81 77 75 74 70 66 64 63 61 59 59 61 62 63 61 60 59 60 60 58 57 56 55 53 54 57 59 58 55 56 57 56 53 52 49 43 40 40 38 37 38 38 37 37 37 37 37 37 37 37 37 37 37 37 36 36 37 38 39 40 40 42 43 44 45 46 47 49 49 50 49 49 48 47 48 49 50 50 50 51 51 51
87 86 84 81 78 76 77 77 74 70 67 64 62 62 63 63 64 64 62 61 61 61 59 57 54 52 50 51 53 55 54 51 50 50 50 48 47 45 43 43 43 42 41 42 41 39 39 39 39 38 39 39 39 39 38 38 37 36 36 40 42 40 39 41 44 46 46 47 47 50 52 53 51 51 51 51 51 51 51 50 51 52 53 54 54
87 86 84 82 78 76 76 78 77 73 68 64 63 64 66 66 66 66 64 60 59 59 58 55 52 51 51 50 50 52 54 50 44 41 41 42 43 42 41 43 45 46 46 46 43 42 41 41 40 40 41 41 41 41 40 39 37 34 35 40 43 41 41 45 49 50 50 50 50 51 52 51 51 52 54 54 53 53 52 52 52 54 55 56 57
87 87 85 82 78 75 73 74 76 74 71 68 66 64 64 66 66 65 62 59 57 57 56 52 51 52 52 50 50 55 59 57 52 48 48 48 48 46 44 46 49 50 49 47 44 42 42 42 42 43 43 43 44 44 42 40 38 35 34 37 43 47 51 54 55 54 53 54 54 54 53 53 55 57 58 56 55 55 55 56 57 58 59 60 60
88 87 86 82 77 74 71 70 72 72 71 71 71 67 64 64 64 62 58 56 54 51 50 50 52 52 49 46 49 55 59 59 60 63 65 62 58 53 51 52 53 51 48 46 44 44 45 45 45 45 45 46 47 47 46 43 42 40 39 40 45 50 53 54 55 55 55 56 57 58 58 58 59 59 59 58 57 58 59 60 62 63 64 64 64
86 85 86 84 77 72 70 67 67 71 73 71 69 68 65 61 58 56 55 55 54 52 52 53 52 49 46 45 48 54 57 57 61 66 69 68 65 59 55 53 51 49 48 48 49 49 49 48 48 48 49 49 50 51 50 48 46 46 46 47 48 51 52 54 56 57 58 58 59 60 61 61 61 61 60 60 60 60 61 63 64 65 65 66 66
83 78 83 86 82 75 70 64 59 64 71 69 65 62 59 54 50 49 49 51 52 53 53 51 47 46 48 50 50 54 58 61 64 68 71 70 66 59 53 51 50 52 54 55 55 53 51 50 50 50 51 52 53 53 53 52 51 51 51 51 51 52 53 55 57 59 60 62 62 63 63 64 64 63 63 62 61 61 62 64 64 65 66 66 66
84 73 74 83 84 79 74 66 55 52 58 62 60 57 51 45 42 42 43 45 47 47 46 45 45 47 51 51 50 54 60 62 62 64 66 65 61 56 53 54 56 58 58 57 54 52 51 51 52 53 54 55 56 55 55 55 54 54 53 54 54 54 54 56 58 61 63 65 65 65 66 66 66 66 65 64 64 65 66 66 67 67 67 68 67
91 81 75 79 82 78 75 71 58 47 45 49 50 47 43 40 41 40 37 36 38 39 41 43 46 48 51 53 55 59 65 66 63 62 61 58 56 54 55 57 58 58 56 54 54 53 53 53 54 56 56 57 57 57 57 57 57 56 56 56 55 55 56 58 60 63 65 67 67 67 68 68 67 67 67 67 67 68 70 70 71 71 71 72 72
94 90 84 83 81 78 76 73 64 52 46 45 42 37 35 37 40 38 33 33 38 43 48 53 55 54 56 61 65 65 66 67 67 65 61 57 55 57 59 60 61 60 59 59 59 59 58 58 57 57 57 57 58 59 59 59 59 59 59 58 58 59 60 62 65 67 69 71 72 72 71 70 70 69 69 70 71 72 73 73 74 75 76 77 78
92 91 88 86 84 81 79 77 70 61 55 51 47 44 43 44 46 45 43 44 49 53 54 54 56 55 57 61 64 66 66 65 63 60 59 59 61 64 66 67 67 66 66 66 66 65 64 62 60 59 60 62 63 63 63 63 63 63 63 64 64 65 66 68 71 73 74 76 77 77 76 75 74 74 74 74 75 76 76 76 77 79 81 82 83
93 92 91 90 88 85 83 82 77 72 66 60 56 56 54 52 52 56 58 58 58 57 53 48 48 50 53 56 61 65 67 66 65 65 66 68 71 73 73 73 72 71 70 69 68 67 66 64 64 66 67 69 70 70 70 69 69 69 69 70 70 71 72 74 76 78 79 81 82 83 82 81 80 80 80 80 80 80 79 80 81 83 85 86 87
Wind_Direction
217 216 212 208 205 204 207 212 218 223 228 232 237 240 242 244 244 245 247 250 253 257 259 262 265 268 272 277 283 288 292 295 299 303 308 313 316 319 322 325 327 327 327 327 328 330 335 340 346 351 356 1 4 6 7 7 8 8 9 10 12 15 15 15 15 17 19 21 20 19 17 16 17 19 21 22 23 20 17 16 21 27 28 22 16
213 216 216 214 212 209 209 213 217 221 226 230 235 240 245 248 250 252 254 256 259 261 264 267 269 272 275 278 283 286 290 293 296 298 301 305 309 312 315 317 320 322 324 324 324 324 324 327 331 335 339 343 346 349 352 354 356 357 358 360 2 4 6 7 8 8 9 12 14 14 13 10 10 11 14 17 21 20 15 13 16 20 23 21 14
206 209 212 213 214 213 213 216 219 222 225 229 234 240 246 250 253 256 258 260 263 265 268 271 274 276 278 280 282 284 287 290 293 295 296 299 302 306 308 311 314 316 318 320 321 321 320 320 322 324 327 330 333 336 339 342 345 346 348 349 351 354 357 359 0 360 360 1 3 6 7 6 4 3 4 7 11 13 12 12 14 15 16 16 13
202 202 204 206 210 212 214 216 219 222 224 227 232 237 244 250 254 258 260 262 264 267 270 273 276 277 279 280 281 283 286 289 291 292 294 295 298 301 304 306 308 311 313 315 317 318 318 318 318 319 320 322 323 326 330 333 335 338 339 341 343 345 348 351 353 353 352 352 353 355 357 359 358 357 355 355 357 0 4 5 6 7 9 10 9
202 201 199 200 206 211 214 216 219 220 221 223 228 234 241 248 253 257 260 262 264 266 269 273 275 277 278 279 281 283 286 289 291 292 292 294 295 298 300 302 304 306 309 311 313 314 315 316 316 316 316 317 318 320 322 325 328 330 332 334 335 338 340 343 345 347 347 346 345 346 347 348 349 350 349 347 346 348 352 352 352 354 358 1 2
205 203 200 200 204 209 213 218 220 220 218 218 222 230 238 246 252 257 260 262 264 265 268 272 275 277 278 279 282 284 286 288 290 291 292 292 294 295 297 300 302 303 305 308 311 312 313 314 314 315 315 315 316 317 318 320 322 324 326 327 329 331 333 336 338 340 341 341 339 339 340 340 341 341 341 340 340 339 339 338 338 340 344 347 349
212 209 206 205 207 209 213 217 221 222 220 216 218 225 234 243 251 257 261 264 266 267 269 273 276 278 279 280 282 284 286 287 289 290 291 291 292 294 296 298 299 301 303 305 308 311 312 313 314 314 314 315 315 315 316 317 319 320 321 323 324 325 327 329 331 333 334 335 335 334 334 335 335 334 334 333 333 333 332 330 328 329 331 333 333
220 218 215 213 211 212 215 218 220 223 222 219 218 220 225 235 245 254 260 264 267 270 272 274 277 280 281 282 283 284 286 288 289 290 290 291 292 293 295 296 297 299 301 303 306 309 311 312 313 313 314 314 314 314 315 315 316 317 319 320 321 322 322 324 326 327 328 329 330 330 329 330 330 330 330 328 327 327 326 324 323 323 322 321 321
221 223 222 221 219 216 217 220 222 225 227 229 228 225 223 228 237 246 253 258 263 267 270 272 275 278 280 282 284 286 287 289 290 291 291 291 292 293 295 296 297 298 299 301 304 306 309 310 311 311 312 312 313 313 313 313 313 314 316 317 318 318 319 320 321 322 323 324 325 325 325 326 326 327 326 325 323 322 320 319 319 319 318 317 316
222 225 228 231 230 225 223 225 227 230 235 242 244 238 232 229 232 240 247 251 255 259 262 266 269 272 276 279 282 284 287 289 290 292 292 293 294 295 296 296 297 298 298 299 302 304 306 308 309 309 310 310 311 311 311 311 311 311 313 314 315 315 315 316 317 318 319 320 320 320 320 322 323 323 323 322 321 319 317 315 314 315 316 315 314
223 226 232 237 238 235 232 230 230 235 243 250 252 250 246 241 239 242 246 250 253 256 258 262 266 270 273 277 280 282 285 287 288 289 291 292 293 295 296 296 297 298 299 299 301 303 304 306 306 307 308 309 309 309 308 309 309 309 309 310 311 312 312 313 314 315 316 316 317 317 317 318 319 319 319 318 318 316 314 312 311 310 311 311 311
222 223 227 231 235 237 239 238 236 239 246 254 257 256 253 251 251 252 254 257 260 261 262 266 270 273 277 280 284 286 286 286 286 287 288 289 291 293 294 295 296 297 298 299 301 302 303 304 304 305 306 307 307 306 306 307 307 307 307 308 308 308 309 310 311 311 312 313 313 313 313 315 316 315 314 314 314 313 312 311 309 308 308 308 307
223 223 222 224 227 229 231 235 237 239 244 252 258 258 255 255 259 262 265 266 267 269 272 274 277 280 284 288 291 292 292 290 289 288 288 288 289 290 291 292 293 294 296 298 299 300 301 301 302 303 304 304 305 305 305 305 306 306 306 307 307 306 307 307 308 308 309 309 310 310 310 311 312 311 310 309 310 310 309 309 307 306 306 306 306
225 227 227 227 228 228 229 229 230 233 237 244 252 255 256 257 260 264 268 270 271 275 278 280 282 285 289 292 295 297 299 298 295 293 292 292 291 291 291 291 292 293 293 295 296 298 299 299 300 301 301 302 302 303 304 304 304 304 305 305 304 304 304 305 305 305 305 305 306 306 307 307 307 307 306 306 307 308 307 307 306 304 305 305 304
225 226 228 230 232 234 236 235 234 236 237 237 242 247 250 253 257 262 267 270 273 277 279 281 285 288 291 294 296 299 304 305 303 300 299 297 297 296 295 295 295 294 294 294 295 296 297 298 299 299 299 300 301 301 302 301 302 302 303 302 302 301 301 302 302 301 301 301 301 301 302 302 303 303 303 303 305 307 307 307 306 304 303 303 302
226 226 227 229 232 235 239 242 244 248 246 239 235 238 242 246 252 257 263 267 272 277 280 283 286 289 291 293 296 300 305 308 308 306 304 302 300 300 300 300 299 298 296 295 295 295 296 297 297 298 298 299 299 300 299 299 299 299 298 298 297 296 297 299 298 297 296 296 296 296 297 298 299 300 302 303 305 306 307 307 306 304 303 302 300
228 229 230 231 234 237 238 240 245 252 254 248 240 237 239 243 247 253 259 265 271 276 281 284 286 288 290 292 295 300 304 306 309 310 308 305 302 302 302 302 301 300 298 297 296 295 295 295 295 295 296 297 297 297 297 296 295 295 295 293 291 290 292 293 292 291 291 292 292 293 294 296 299 301 304 305 306 306 306 306 306 304 303 302 301
230 232 232 233 236 238 238 238 241 247 252 252 249 245 243 244 247 252 258 263 268 274 279 282 285 287 289 290 293 296 300 303 307 310 310 308 304 303 303 302 301 300 299 299 298 295 293 292 291 291 292 292 292 293 293 293 292 292 290 289 288 289 289 288 287 288 289 290 291 293 295 298 302 304 306 307 306 306 305 305 305 304 303 302 301
231 232 232 232 236 238 237 236 235 237 244 251 253 251 247 247 251 255 258 262 266 271 275 279 283 285 287 288 289 291 294 298 302 306 309 308 305 303 303 301 299 300 301 300 298 295 292 290 289 289 289 288 287 288 290 291 290 289 287 287 288 290 290 287 287 288 288 290 292 295 297 301 305 307 307 306 305 305 305 304 304 303 302 301 300
230 232 232 233 236 237 235 232 229 231 241 251 255 253 248 249 255 258 259 263 267 269 273 276 280 282 284 285 286 286 288 292 296 301 305 306 305 303 301 300 300 301 302 300 297 295 293 291 289 289 289 288 287 287 287 287 287 286 286 288 290 291 291 290 291 291 290 291 293 296 299 303 306 306 306 305 304 303 302 302 303 303 302 300 298
229 231 232 233 235 236 235 233 231 234 242 249 251 249 246 251 261 263 263 266 268 270 272 274 277 280 281 283 283 283 285 287 291 295 300 302 303 301 298 299 302 303 301 300 299 296 294 292 291 290 289 289 288 287 286 284 284 284 287 290 291 292 292 292 293 293 292 293 294 297 300 303 304 305 304 302 300 299 299 300 302 301 299 298 298
227 229 232 234 234 235 236 235 235 238 243 245 245 245 248 257 265 265 267 269 269 271 273 274 276 278 279 280 281 282 284 285 287 291 295 298 299 298 297 301 303 301 300 301 302 299 297 294 293 291 291 290 289 287 285 283 283 284 287 289 289 290 291 292 292 292 292 292 294 296 299 300 301 301 299 297 295 295 296 297 298 298 297 296 299
225 227 232 235 236 237 237 237 237 239 241 243 245 248 253 260 264 265 267 268 268 271 273 273 275 276 277 278 280 281 284 285 287 289 291 294 296 296 298 302 303 300 300 304 305 302 299 297 296 295 294 292 289 287 286 285 286 286 286 286 287 288 289 289 290 290 290 291 292 294 296 297 297 296 294 293 293 292 293 294 296 296 295 295 297
223 226 229 232 233 235 237 237 238 238 239 240 245 250 255 259 261 263 265 265 268 273 275 273 274 275 276 277 279 280 283 285 287 288 290 292 294 295 298 303 304 301 301 304 306 303 300 299 299 298 296 293 292 291 291 290 290 289 287 287 287 287 287 288 288 288 288 289 290 292 293 292 291 291 292 291 291 291 292 293 294 294 292 290 290
223 225 228 229 230 232 235 236 237 239 239 241 244 250 255 259 261 263 263 264 268 273 274 272 273 275 275 276 278 279 282 284 285 287 288 290 292 294 298 302 303 302 303 305 306 303 301 299 299 297 296 295 295 296 296 295 294 292 292 291 289 289 288 288 288 287 287 288 288 288 288 287 288 289 290 290 291 291 292 292 292 291 288 286 285
224 226 228 229 230 232 235 236 236 237 238 239 242 247 253 257 260 262 263 264 268 272 272 272 273 273 274 275 277 278 281 282 282 283 285 287 290 293 296 299 302 303 304 306 306 304 301 299 298 297 297 298 298 298 298 297 296 296 295 294 292 291 290 289 289 288 288 287 287 286 285 285 286 287 288 289 290 290 290 290 289 288 287 286 286
227 229 230 231 232 234 236 237 237 237 237 239 243 246 250 254 257 259 261 264 267 269 271 273 274 272 272 274 276 277 279 280 279 280 283 286 289 291 292 296 300 303 305 307 308 305 302 300 299 299 299 299 299 299 298 298 298 297 296 295 293 293 292 291 290 290 290 289 288 287 286 286 286 286 286 287 288 287 287 287 287 287 287 287 287
229 230 232 233 234 235 237 238 238 238 240 242 245 247 249 252 254 257 259 262 266 268 271 273 274 272 272 274 275 276 277 277 277 280 284 286 286 287 289 294 298 302 305 309 308 305 304 302 300 299 299 299 299 299 298 298 298 297 296 295 295 294 293 293 292 293 294 293 291 290 289 288 287 287 286 286 285 284 284 285 285 286 286 287 288
229 230 232 233 234 236 237 238 239 239 241 243 246 248 250 251 253 254 257 260 265 268 270 271 272 273 274 275 275 274 275 276 277 281 283 282 281 283 288 291 295 299 305 308 306 305 304 303 301 300 299 299 298 298 298 298 297 296 296 296 296 296 295 295 296 297 298 296 295 294 293 291 289 288 287 286 284 283 283 284 284 285 285 287 289
228 229 231 232 234 236 237 239 240 241 242 243 245 248 250 251 251 253 257 261 265 267 267 267 270 273 274 274 274 273 273 275 278 279 278 278 279 282 285 287 291 297 301 302 303 304 305 303 301 299 298 297 297 297 297 296 295 296 297 297 298 298 298 299 301 302 300 298 297 295 293 291 289 288 288 286 285 284 284 283 283 284 285 287 288
228 229 230 232 234 235 237 239 240 242 243 244 245 247 250 251 251 254 257 260 263 264 264 264 267 270 272 273 273 273 272 274 275 275 275 276 277 278 281 284 287 292 295 296 299 304 306 306 302 299 298 297 296 296 295 295 296 299 300 300 300 301 302 303 303 302 300 298 296 295 293 290 289 288 287 286 285 284 283 283 283 284 284 285 285
227 228 230 231 233 235 237 238 240 242 244 245 246 248 250 251 253 256 259 260 261 263 264 264 266 268 269 270 271 270 269 270 270 271 272 273 273 274 276 278 282 286 288 291 297 303 306 306 304 302 301 299 297 296 294 295 298 300 301 302 303 303 303 303 302 300 298 297 295 294 292 290 289 287 286 285 283 283 283 283 284 284 283 283 283
226 227 229 231 232 234 236 237 239 241 243 246 249 252 254 255 257 260 262 263 264 266 269 269 269 268 268 268 267 266 266 266 267 268 269 269 269 270 270 272 276 280 282 285 292 298 302 303 303 303 304 303 300 297 295 295 297 299 301 304 305 304 303 301 300 299 298 297 295 294 293 292 291 289 287 285 284 284 284 285 286 285 284 284 284
226 227 228 230 232 233 235 237 238 240 242 245 249 253 256 258 259 261 262 263 266 269 270 270 269 268 269 268 267 265 264 264 265 266 267 267 266 265 266 269 272 273 275 281 287 292 296 299 302 304 306 305 303 301 299 298 297 298 301 304 304 303 303 302 300 300 299 298 297 296 295 295 294 292 290 288 287 287 287 287 286 284 283 284 285
226 226 227 229 231 233 235 237 239 242 244 245 247 248 248 250 252 254 256 258 260 261 263 265 267 269 270 270 268 266 263 263 264 264 264 265 264 263 264 266 268 268 271 277 282 287 293 297 302 305 307 305 305 304 303 300 299 298 300 301 302 302 304 304 302 301 300 298 298 297 297 297 297 295 292 290 290 290 291 290 288 285 283 283 284
226 227 227 229 230 233 234 237 240 244 246 248 248 248 247 247 248 250 250 251 252 254 258 262 266 269 270 271 270 268 265 263 263 263 262 263 264 262 261 263 264 266 269 273 277 284 292 296 300 304 306 304 305 306 305 302 300 298 298 298 300 301 303 303 302 302 301 299 298 297 297 297 297 295 293 292 293 295 295 294 292 290 288 287 287
226 227 227 228 229 232 234 235 236 239 243 247 249 251 252 252 251 250 249 249 251 255 259 262 266 269 271 271 271 270 269 267 264 261 259 261 262 261 259 259 260 261 264 269 275 284 291 296 299 303 305 304 305 306 306 303 300 297 296 296 297 297 298 298 298 299 299 298 296 296 296 296 296 295 294 294 295 295 295 294 293 292 291 290 289
227 228 228 227 228 230 232 233 233 232 234 239 243 247 249 252 253 253 253 252 251 253 258 263 267 270 271 272 272 272 270 269 265 261 259 261 262 259 255 255 256 256 259 266 276 285 292 296 297 300 303 304 304 305 304 302 298 296 294 294 294 293 293 294 295 295 296 296 296 296 297 297 297 296 296 295 295 294 294 293 292 291 290 289 288
226 228 228 227 226 227 229 231 232 230 229 233 238 240 243 246 251 254 255 253 252 254 259 265 269 272 271 272 273 271 268 267 267 262 257 259 261 258 253 250 250 252 259 270 280 287 291 294 294 296 299 301 301 302 302 299 296 294 293 293 292 293 292 292 293 293 294 295 295 295 295 294 294 294 294 294 293 294 294 294 293 293 291 290 289
226 228 229 227 226 226 227 229 229 228 229 233 237 237 239 243 248 250 251 252 254 259 264 268 272 274 274 273 273 269 264 264 266 263 258 259 263 260 253 247 247 253 266 280 286 288 290 292 293 294 296 297 298 299 299 297 294 293 294 295 294 293 293 293 292 292 293 294 294 293 292 291 290 290 290 290 291 293 295 294 294 294 293 291 291
225 227 228 228 227 226 226 228 229 229 230 232 234 235 236 241 244 246 248 252 256 261 267 271 273 275 276 275 271 265 260 262 267 265 260 260 261 257 247 242 246 258 274 283 286 288 289 290 291 292 293 295 297 297 297 296 293 293 297 299 296 293 293 293 292 292 293 293 293 293 293 291 289 290 292 292 292 293 295 294 294 294 293 292 292
224 226 227 228 227 227 226 227 229 231 231 231 233 235 236 239 243 246 249 254 259 264 268 272 273 275 276 277 273 265 259 258 261 263 260 257 257 253 246 244 251 264 277 282 284 286 288 288 289 290 291 293 295 296 296 294 290 291 299 303 298 294 294 295 294 292 292 291 291 292 292 290 288 291 295 295 293 293 294 295 295 295 294 293 293
223 225 226 227 227 227 227 227 229 231 232 232 233 237 240 242 246 248 252 257 263 266 268 272 276 277 277 277 275 268 260 255 256 261 263 262 260 256 252 253 260 270 277 280 282 285 287 288 289 289 290 292 294 295 295 292 288 287 293 295 292 290 292 294 293 291 290 289 290 290 289 288 288 291 293 294 292 291 292 293 293 294 294 293 293
223 224 225 225 225 226 226 226 228 230 231 232 235 239 244 247 249 251 255 258 262 266 270 273 275 273 271 270 270 267 260 255 257 261 263 262 259 257 257 260 266 272 274 277 281 285 287 288 288 288 289 292 293 294 294 291 287 286 287 287 287 288 291 292 291 290 288 287 288 288 288 288 289 290 291 291 290 290 291 291 292 293 294 294 293
222 223 223 223 223 223 223 225 228 231 231 233 237 241 245 249 252 254 257 258 259 264 271 274 271 268 265 264 263 260 256 254 253 255 257 257 256 256 260 264 267 270 274 278 283 286 287 288 289 289 290 292 292 292 293 291 289 287 288 289 290 292 292 293 293 292 289 287 286 287 287 288 288 289 289 289 289 289 290 292 293 294 295 296 296
221 224 224 222 222 222 222 224 229 233 233 235 239 242 245 249 253 256 258 259 261 263 267 268 267 265 265 265 264 261 259 256 252 251 251 251 252 255 261 265 269 275 280 283 285 287 288 289 290 291 292 292 292 291 291 291 290 289 289 290 291 292 293 295 296 295 292 289 288 287 287 287 287 288 288 289 289 290 291 293 295 296 297 298 298
219 223 224 222 221 222 222 222 226 232 233 235 238 240 241 245 251 255 256 257 257 257 259 261 262 261 260 259 258 255 253 251 249 248 248 248 251 256 264 271 276 281 283 284 285 287 288 289 291 293 294 294 292 291 290 290 289 289 289 289 290 291 292 294 296 296 294 292 290 288 287 287 287 287 288 288 289 291 293 295 296 297 298 300 301
219 222 224 222 220 221 221 220 219 223 226 228 231 234 236 239 245 249 249 246 244 245 248 249 250 249 245 242 242 242 242 243 244 246 247 249 254 262 270 276 280 282 283 283 285 287 288 290 293 294 294 293 292 291 290 289 288 287 288 288 288 289 291 293 295 296 295 293 291 289 288 287 287 287 288 288 290 292 294 296 297 298 299 301 302
219 221 224 223 221 219 218 216 215 215 215 214 213 217 222 225 228 234 241 245 248 251 251 249 245 241 234 230 230 233 237 239 241 243 246 250 257 266 273 276 278 280 282 284 286 287 288 290 292 293 293 292 292 291 290 289 287 287 287 288 288 289 290 292 293 294 294 292 291 290 290 289 288 288 288 289 291 293 294 296 297 299 300 302 303
219 220 222 222 221 218 216 215 214 212 211 207 201 202 208 212 213 214 220 229 236 242 246 248 246 241 233 228 228 230 233 235 237 241 245 252 261 268 273 275 277 279 281 283 285 287 287 289 290 291 292 292 292 291 290 288 287 286 286 287 287 288 289 290 292 292 292 292 291 291 290 289 288 288 289 290 291 292 294 296 299 301 303 303 303
219 220 221 221 221 218 215 215 214 212 210 206 201 201 206 212 214 215 216 220 223 226 229 231 233 232 229 230 234 237 239 242 246 250 254 260 266 270 274 276 278 280 282 283 285 286 286 287 289 292 293 293 292 290 289 288 287 287 286 286 286 286 287 289 290 290 291 291 291 290 289 288 288 289 290 290 291 292 293 296 300 303 304 304 303
Height
11003 11005 11007 11008 11009 11010 11011 11013 11015 11017 11019 11020 11022 11023 11024 11025 11026 11026 11027 11027 11027 11027 11027 11028 11028 11028 11028 11028 11028 11028 11027 11027 11027 11027 11027 11027 11027 11027 11027 11027 11027 11027 11027 11026 11026 11025 11025 11025 11024 11024 11023 11022 11021 11020 11019 11018 11017 11016 11015 11013 11012 11011 11009 11008 11006 11005 11004 11003 11001 11000 10998 10996 10994 10993 10992 10990 10988 10986 10985 10984 10983 10982 10980 10979 10978
11001 11004 11006 11007 11007 11008 11009 11010 11011 11013 11015 11017 11019 11020 11022 11023 11024 11025 11026 11026 11026 11026 11026 11026 11027 11027 11027 11027 11027 11027 11026 11026 11026 11026 11026 11026 11026 11026 11026 11026 11026 11026 11026 11026 11026 11025 11024 11024 11024 11023 11022 11022 11021 11020 11019 11018 11017 11016 11014 11013 11012 11011 11010 11008 11007 11005 11004 11003 11002 11001 10999 10997 10995 10993 10992 10991 10989 10988 10987 10985 10983 10982 10980 10979 10978
10998 11001 11003 11005 11006 11007 11007 11008 11008 11010 11011 11013 11015 11017 11019 11021 11022 11023 11024 11025 11025 11025 11025 11025 11026 11026 11026 11026 11026 11025 11025 11025 11025 11025 11024 11024 11025 11025 11025 11025 11025 11025 11026 11026 11025 11025 11024 11023 11023 11022 11022 11021 11020 11019 11018 11017 11016 11015 11014 11013 11012 11011 11010 11009 11007 11005 11004 11003 11002 11001 10999 10998 10996 10994 10992 10991 10990 10989 10987 10985 10983 10982 10980 10979 10977
10996 10997 10999 11002 11004 11005 11005 11005 11006 11007 11008 11010 11012 11014 11016 11017 11019 11021 11022 11023 11023 11023 11023 11024 11024 11025 11025 11025 11024 11024 11024 11024 11024 11024 11023 11023 11023 11023 11024 11024 11024 11024 11024 11025 11025 11024 11024 11023 11022 11021 11021 11020 11019 11018 11017 11016 11015 11014 11013 11012 11011 11010 11009 11008 11007 11005 11004 11002 11001 11000 10999 10997 10996 10994 10992 10991 10989 10988 10986 10984 10983 10981 10980 10979 10977
10994 10995 10997 10999 11000 11002 11002 11003 11003 11004 11006 11008 11009 11011 11012 11014 11016 11018 11019 11020 11021 11021 11021 11022 11023 11023 11023 11023 11023 11023 11022 11022 11022 11022 11022 11022 11022 11022 11022 11022 11023 11023 11023 11023 11023 11023 11023 11023 11022 11021 11020 11019 11018 11017 11016 11015 11014 11013 11012 11011 11010 11009 11008 11007 11006 11005 11003 11001 11000 10998 10997 10996 10995 10993 10992 10990 10988 10987 10985 10983 10982 10980 10979 10978 10976
10992 10994 10995 10997 10997 10999 11000 11001 11002 11003 11004 11005 11007 11008 11009 11011 11013 11014 11016 11018 11019 11019 11019 11020 11020 11021 11021 11021 11021 11021 11021 11021 11021 11021 11021 11020 11020 11020 11021 11021 11021 11021 11021 11022 11022 11022 11022 11021 11021 11020 11019 11018 11017 11016 11015 11014 11013 11012 11011 11010 11009 11008 11006 11005 11004 11003 11002 11000 10999 10997 10995 10994 10993 10991 10990 10989 10987 10985 10984 10982 10981 10979 10977 10976 10975
10990 10992 10993 10994 10995 10997 10998 10999 11000 11001 11002 11003 11004 11005 11006 11007 11009 11011 11013 11015 11016 11017 11018 11018 11018 11019 11019 11019 11019 11019 11019 11019 11019 11019 11019 11019 11018 11019 11019 11019 11019 11019 11019 11019 11020 11020 11020 11020 11019 11019 11018 11017 11016 11015 11014 11013 11012 11011 11010 11009 11008 11006 11005 11004 11003 11002 11000 10999 10997 10996 10994 10992 10991 10989 10988 10987 10985 10984 10982 10980 10979 10978 10976 10975 10973
10988 10990 10991 10992 10993 10995 10996 10997 10999 10999 11000 11001 11002 11002 11003 11004 11006 11008 11010 11012 11013 11015 11016 11016 11016 11016 11017 11017 11017 11017 11017 11017 11017 11018 11017 11017 11017 11017 11018 11018 11018 11018 11017 11017 11017 11018 11018 11018 11017 11017 11017 11016 11015 11014 11013 11011 11010 11009 11009 11008 11006 11005 11004 11002 11001 11000 10998 10997 10996 10994 10992 10990 10989 10987 10985 10984 10983 10981 10980 10979 10977 10975 10974 10973 10972
10986 10987 10989 10990 10992 10994 10995 10996 10997 10998 10998 10999 11000 11001 11001 11002 11003 11005 11006 11009 11011 11012 11013 11014 11014 11014 11014 11015 11015 11015 11015 11016 11016 11016 11016 11015 11015 11015 11015 11016 11016 11016 11016 11016 11015 11015 11015 11015 11015 11015 11015 11014 11013 11013 11012 11010 11009 11008 11007 11006 11005 11003 11002 11000 10999 10998 10996 10995 10994 10992 10991 10989 10987 10985 10983 10981 10980 10979 10978 10976 10975 10973 10972 10970 10969
10984 10985 10987 10990 10992 10993 10994 10995 10996 10996 10997 10998 10999 11000 11000 11000 11001 11002 11003 11006 11008 11009 11010 11011 11011 11012 11012 11012 11012 11013 11013 11014 11014 11013 11013 11013 11013 11013 11013 11013 11014 11014 11014 11014 11014 11013 11013 11013 11013 11013 11013 11012 11011 11011 11010 11009 11008 11006 11005 11004 11003 11002 11000 10999 10997 10995 10994 10992 10991 10990 10988 10987 10985 10983 10981 10979 10977 10976 10975 10973 10972 10971 10969 10968 10966
10982 10984 10986 10989 10990 10991 10993 10994 10995 10996 10997 10997 10998 10999 10999 10999 10999 11000 11001 11003 11005 11007 11008 11008 11009 11009 11010 11010 11010 11010 11010 11011 11011 11011 11011 11011 11010 11011 11011 11011 11011 11011 11011 11011 11012 11012 11011 11011 11010 11010 11010 11010 11009 11008 11007 11007 11006 11005 11003 11002 11001 10999 10998 10996 10995 10993 10991 10990 10988 10986 10985 10984 10983 10981 10979 10977 10975 10973 10972 10970 10969 10968 10967 10965 10964
10977 10980 10982 10984 10986 10988 10990 10992 10994 10996 10997 10998 10998 10998 10998 10998 10998 10999 11000 11001 11003 11005 11005 11006 11006 11007 11007 11007 11007 11008 11008 11008 11008 11008 11008 11008 11008 11008 11008 11008 11008 11008 11008 11008 11009 11009 11009 11008 11008 11007 11007 11007 11007 11006 11005 11004 11003 11002 11001 11000 10999 10997 10995 10994 10992 10990 10989 10987 10985 10983 10982 10980 10979 10978 10977 10975 10973 10971 10969 10967 10966 10964 10963 10962 10961
10974 10976 10977 10978 10979 10981 10984 10987 10990 10993 10995 10997 10998 10997 10996 10996 10997 10998 10999 11000 11001 11003 11004 11004 11005 11005 11005 11005 11005 11005 11005 11005 11005 11005 11005 11005 11005 11005 11005 11005 11005 11005 11005 11006 11006 11006 11006 11006 11005 11005 11004 11004 11003 11003 11002 11001 11001 11000 10999 10997 10996 10994 10993 10991 10989 10987 10986 10984 10982 10980 10978 10977 10976 10975 10973 10972 10970 10968 10966 10964 10962 10961 10960 10959 10957
10972 10974 10975 10974 10975 10976 10978 10980 10983 10986 10990 10992 10994 10995 10995 10994 10995 10996 10997 10998 10999 11001 11002 11002 11003 11003 11003 11003 11003 11003 11003 11003 11002 11002 11002 11002 11002 11002 11002 11002 11002 11002 11002 11003 11003 11003 11003 11003 11003 11002 11001 11001 11000 10999 10998 10998 10997 10997 10996 10994 10993 10991 10990 10988 10986 10984 10982 10981 10979 10977 10975 10974 10973 10971 10969 10968 10967 10965 10964 10962 10960 10958 10956 10955 10954
10967 10969 10971 10972 10974 10976 10976 10977 10979 10982 10984 10986 10989 10991 10992 10992 10993 10993 10995 10996 10997 10998 11000 11000 11000 11000 11000 11000 11000 11000 11000 11000 11000 10999 10999 10999 10999 10999 10999 10999 10999 10999 10999 10999 11000 11000 11000 11000 10999 10999 10998 10997 10997 10996 10995 10994 10993 10993 10992 10991 10989 10988 10986 10985 10983 10981 10979 10978 10976 10975 10973 10970 10969 10968 10967 10965 10963 10962 10961 10959 10957 10955 10954 10953 10951
10962 10964 10966 10968 10970 10973 10975 10977 10979 10979 10980 10982 10983 10986 10988 10989 10990 10991 10992 10993 10994 10995 10996 10997 10998 10998 10998 10997 10997 10997 10997 10997 10997 10996 10996 10995 10995 10995 10995 10995 10995 10995 10995 10996 10996 10997 10997 10997 10996 10995 10994 10993 10993 10992 10991 10990 10989 10989 10988 10987 10986 10984 10983 10982 10979 10977 10976 10974 10973 10972 10970 10968 10966 10965 10964 10962 10960 10959 10957 10956 10955 10953 10951 10950 10949
10957 10960 10963 10965 10966 10969 10972 10975 10977 10978 10979 10979 10981 10983 10985 10986 10987 10988 10990 10991 10991 10992 10993 10994 10995 10995 10995 10995 10994 10994 10994 10994 10994 10993 10992 10992 10991 10990 10990 10991 10991 10991 10991 10992 10992 10993 10993 10993 10992 10991 10990 10990 10989 10987 10987 10986 10985 10984 10983 10982 10981 10981 10980 10978 10975 10973 10972 10971 10970 10969 10967 10966 10963 10962 10961 10959 10958 10956 10954 10953 10952 10950 10948 10947 10946
10951 10955 10959 10962 10964 10965 10968 10972 10975 10976 10977 10978 10980 10981 10982 10983 10984 10985 10987 10988 10989 10989 10990 10990 10991 10992 10992 10992 10991 10991 10991 10991 10991 10990 10989 10988 10987 10986 10986 10986 10986 10986 10987 10988 10989 10989 10989 10988 10988 10987 10987 10986 10985 10983 10982 10982 10981 10981 10979 10978 10977 10977 10977 10974 10971 10970 10968 10967 10966 10966 10965 10963 10962 10960 10959 10957 10956 10954 10952 10950 10949 10947 10945 10944 10943
10944 10948 10953 10957 10960 10962 10966 10969 10971 10972 10974 10975 10977 10979 10980 10981 10981 10982 10983 10985 10986 10986 10986 10987 10987 10987 10988 10989 10988 10988 10987 10987 10987 10987 10986 10985 10984 10982 10982 10981 10981 10981 10982 10983 10984 10984 10984 10984 10983 10983 10983 10983 10982 10980 10979 10978 10977 10976 10975 10974 10973 10974 10973 10971 10969 10967 10965 10964 10963 10963 10962 10961 10960 10958 10957 10955 10953 10951 10949 10947 10945 10944 10942 10941 10939
10938 10943 10948 10953 10956 10958 10962 10965 10967 10969 10970 10972 10974 10976 10977 10978 10978 10979 10980 10981 10982 10983 10983 10983 10983 10983 10984 10984 10985 10984 10984 10983 10983 10982 10982 10982 10981 10979 10978 10977 10976 10976 10977 10978 10979 10979 10979 10979 10979 10979 10978 10978 10978 10977 10976 10974 10973 10971 10970 10970 10970 10970 10969 10967 10966 10964 10963 10961 10960 10960 10959 10959 10957 10956 10955 10953 10951 10948 10946 10944 10942 10940 10938 10937 10935
10933 10939 10944 10948 10951 10954 10957 10961 10963 10965 10967 10969 10971 10972 10973 10974 10975 10975 10977 10978 10978 10979 10979 10979 10979 10979 10979 10979 10980 10980 10980 10980 10980 10979 10978 10978 10977 10976 10974 10973 10972 10972 10972 10973 10973 10974 10974 10975 10975 10974 10974 10974 10974 10973 10972 10971 10969 10967 10967 10966 10965 10965 10965 10964 10963 10961 10959 10958 10957 10956 10956 10956 10954 10953 10951 10949 10947 10945 10942 10940 10939 10937 10935 10933 10931
10928 10934 10938 10943 10947 10949 10952 10955 10958 10961 10963 10965 10967 10967 10969 10970 10972 10972 10973 10974 10974 10975 10975 10975 10975 10975 10975 10975 10975 10975 10976 10977 10977 10976 10975 10974 10973 10972 10971 10970 10969 10968 10968 10968 10969 10969 10970 10970 10970 10970 10970 10970 10970 10969 10967 10966 10965 10964 10963 10963 10961 10960 10960 10960 10959 10958 10956 10955 10954 10953 10953 10952 10951 10949 10947 10945 10943 10941 10939 10937 10936 10934 10932 10930 10928
10924 10930 10934 10938 10942 10944 10946 10949 10952 10955 10958 10959 10960 10961 10964 10966 10967 10968 10969 10969 10970 10971 10971 10971 10971 10971 10971 10971 10971 10972 10972 10973 10973 10973 10973 10972 10971 10969 10968 10967 10966 10965 10964 10963 10964 10965 10965 10965 10965 10965 10965 10965 10965 10964 10963 10962 10961 10960 10960 10959 10957 10956 10955 10955 10954 10954 10952 10951 10950 10949 10948 10947 10946 10944 10942 10940 10938 10936 10935 10933 10932 10930 10929 10927 10925
10919 10924 10929 10933 10936 10938 10941 10944 10947 10950 10953 10954 10955 10956 10958 10960 10962 10963 10964 10964 10965 10966 10966 10967 10967 10967 10967 10968 10968 10969 10969 10969 10969 10970 10970 10970 10969 10967 10965 10964 10964 10962 10961 10960 10960 10960 10960 10960 10960 10960 10960 10960 10960 10959 10959 10958 10957 10956 10955 10954 10953 10952 10950 10950 10949 10948 10947 10947 10946 10945 10943 10942 10941 10939 10938 10936 10934 10932 10931 10930 10928 10927 10925 10923 10921
10913 10918 10922 10926 10929 10932 10935 10939 10942 10945 10947 10949 10950 10951 10952 10954 10956 10957 10958 10960 10961 10961 10962 10962 10963 10963 10963 10963 10964 10965 10966 10966 10965 10965 10966 10966 10966 10965 10963 10962 10961 10959 10958 10957 10957 10957 10956 10956 10955 10955 10955 10955 10955 10955 10954 10953 10952 10951 10950 10949 10948 10947 10945 10945 10944 10943 10942 10941 10940 10939 10938 10937 10935 10934 10933 10931 10930 10928 10927 10926 10924 10923 10921 10918 10916
10906 10911 10915 10919 10923 10927 10930 10934 10937 10940 10943 10945 10946 10947 10947 10949 10950 10951 10953 10955 10955 10956 10956 10957 10957 10958 10958 10958 10959 10960 10962 10962 10962 10962 10962 10962 10962 10962 10961 10959 10958 10957 10955 10954 10954 10953 10952 10951 10951 10950 10950 10950 10950 10950 10949 10949 10948 10947 10946 10945 10943 10942 10940 10939 10938 10937 10936 10935 10934 10934 10933 10931 10930 10929 10928 10927 10926 10924 10922 10920 10919 10918 10916 10914 10912
10900 10904 10908 10912 10916 10920 10925 10928 10931 10934 10937 10940 10941 10942 10943 10944 10944 10946 10948 10949 10949 10949 10950 10950 10951 10952 10952 10953 10954 10956 10957 10957 10957 10958 10959 10959 10959 10958 10957 10956 10955 10954 10952 10951 10950 10949 10948 10947 10946 10946 10946 10946 10946 10945 10945 10944 10943 10942 10941 10940 10938 10937 10935 10934 10933 10931 10930 10930 10929 10928 10927 10926 10925 10924 10924 10922 10921 10919 10917 10915 10914 10913 10912 10910 10909
10893 10897 10901 10904 10909 10914 10918 10921 10924 10927 10930 10933 10935 10937 10937 10938 10939 10940 10942 10943 10942 10943 10944 10944 10944 10945 10946 10947 10950 10951 10951 10951 10952 10954 10957 10957 10955 10955 10954 10953 10952 10950 10949 10948 10947 10945 10944 10943 10942 10942 10942 10941 10941 10941 10940 10940 10939 10938 10936 10935 10933 10932 10931 10929 10928 10926 10925 10924 10923 10923 10922 10921 10920 10919 10918 10917 10915 10913 10911 10910 10909 10908 10907 10906 10905
10886 10890 10893 10898 10903 10907 10911 10914 10917 10921 10923 10926 10927 10929 10930 10932 10933 10935 10936 10937 10937 10937 10938 10939 10938 10938 10939 10942 10944 10946 10945 10945 10947 10951 10953 10953 10952 10951 10950 10949 10948 10947 10946 10945 10943 10941 10940 10939 10938 10938 10937 10936 10936 10935 10935 10934 10933 10933 10932 10931 10929 10928 10926 10925 10924 10923 10921 10920 10918 10917 10917 10915 10914 10913 10912 10911 10909 10907 10906 10905 10904 10903 10902 10901 10901
10879 10883 10888 10893 10898 10902 10905 10908 10911 10913 10916 10918 10920 10921 10923 10926 10928 10930 10931 10932 10932 10931 10932 10932 10932 10932 10933 10935 10937 10939 10939 10940 10943 10946 10948 10948 10948 10947 10946 10946 10944 10943 10942 10941 10939 10937 10936 10935 10934 10933 10932 10931 10930 10930 10929 10928 10928 10927 10927 10926 10925 10924 10923 10922 10921 10919 10918 10916 10914 10913 10911 10910 10908 10907 10905 10904 10903 10901 10900 10900 10899 10898 10897 10896 10896
10872 10877 10883 10889 10893 10896 10899 10902 10905 10907 10910 10912 10914 10916 10917 10921 10924 10925 10926 10926 10925 10924 10924 10925 10926 10926 10927 10928 10930 10932 10933 10934 10937 10940 10941 10942 10943 10942 10942 10941 10940 10939 10938 10936 10935 10933 10932 10931 10930 10929 10928 10926 10925 10924 10924 10923 10922 10922 10922 10921 10921 10920 10919 10919 10917 10916 10914 10912 10910 10908 10906 10904 10902 10901 10899 10898 10896 10895 10894 10893 10893 10893 10892 10891 10890
10866 10872 10878 10883 10887 10890 10894 10897 10900 10902 10905 10907 10909 10912 10914 10917 10920 10921 10921 10920 10918 10916 10917 10919 10921 10920 10920 10921 10922 10924 10925 10926 10929 10932 10934 10936 10936 10936 10936 10936 10935 10934 10933 10931 10930 10929 10928 10926 10925 10924 10923 10921 10920 10919 10918 10918 10917 10917 10917 10916 10916 10915 10914 10914 10912 10911 10909 10907 10905 10903 10901 10899 10897 10895 10894 10892 10890 10889 10888 10888 10888 10887 10886 10885 10884
10860 10867 10872 10877 10880 10883 10887 10890 10893 10896 10899 10902 10906 10909 10912 10915 10918 10918 10916 10914 10912 10912 10913 10914 10914 10914 10913 10913 10914 10915 10916 10917 10920 10924 10927 10929 10930 10930 10930 10930 10929 10929 10928 10926 10925 10924 10923 10921 10920 10919 10918 10916 10915 10914 10913 10913 10912 10912 10912 10911 10911 10910 10909 10908 10907 10906 10904 10902 10900 10898 10896 10894 10892 10890 10888 10887 10885 10884 10883 10883 10883 10882 10880 10880 10880
10854 10860 10864 10868 10871 10875 10880 10883 10887 10890 10894 10898 10902 10906 10910 10914 10916 10914 10911 10909 10909 10908 10907 10906 10906 10907 10907 10907 10907 10908 10908 10910 10913 10916 10919 10921 10923 10924 10924 10924 10924 10923 10922 10921 10920 10919 10918 10917 10916 10915 10913 10912 10911 10910 10909 10908 10907 10907 10906 10906 10904 10903 10903 10902 10901 10901 10900 10898 10896 10894 10892 10891 10889 10887 10885 10882 10880 10879 10879 10878 10878 10877 10876 10875 10875
10846 10851 10855 10860 10864 10869 10873 10877 10882 10887 10891 10894 10897 10899 10903 10908 10908 10904 10902 10903 10902 10899 10897 10897 10899 10900 10902 10902 10902 10902 10902 10903 10907 10910 10912 10915 10917 10918 10919 10919 10919 10917 10916 10916 10915 10914 10913 10912 10911 10910 10909 10908 10907 10907 10905 10904 10903 10902 10901 10900 10898 10897 10896 10896 10895 10895 10894 10893 10892 10890 10888 10886 10885 10883 10881 10879 10876 10875 10875 10874 10874 10873 10871 10871 10871
10837 10842 10848 10853 10858 10862 10867 10872 10878 10884 10889 10891 10893 10894 10896 10899 10898 10895 10893 10893 10891 10889 10889 10891 10894 10896 10897 10898 10897 10896 10896 10898 10901 10903 10905 10908 10910 10912 10913 10913 10913 10912 10911 10909 10909 10909 10908 10907 10906 10905 10904 10903 10902 10901 10900 10899 10898 10897 10895 10894 10893 10892 10890 10889 10888 10888 10887 10887 10886 10885 10883 10882 10880 10878 10877 10875 10874 10873 10872 10871 10870 10868 10868 10867 10866
10830 10834 10840 10846 10852 10856 10860 10864 10868 10874 10880 10885 10888 10891 10891 10890 10888 10886 10885 10884 10884 10884 10883 10885 10888 10891 10892 10892 10891 10891 10893 10894 10895 10896 10899 10901 10903 10905 10906 10906 10906 10905 10904 10903 10903 10902 10902 10901 10900 10898 10897 10897 10896 10895 10894 10893 10893 10892 10890 10889 10888 10887 10885 10884 10883 10882 10882 10881 10880 10879 10878 10877 10875 10873 10872 10871 10871 10870 10868 10866 10865 10864 10863 10862 10861
10822 10826 10831 10839 10844 10845 10848 10852 10856 10862 10869 10874 10879 10884 10885 10881 10879 10879 10879 10878 10879 10879 10877 10877 10881 10885 10885 10885 10885 10886 10888 10890 10890 10890 10892 10895 10896 10896 10898 10899 10899 10898 10897 10896 10896 10896 10895 10895 10894 10893 10892 10891 10890 10889 10888 10887 10886 10886 10885 10884 10883 10882 10881 10880 10879 10878 10877 10877 10876 10875 10874 10872 10870 10868 10867 10867 10866 10864 10863 10861 10860 10859 10858 10856 10855
10814 10817 10822 10830 10835 10836 10839 10845 10851 10856 10861 10865 10869 10874 10875 10873 10871 10872 10872 10872 10873 10872 10871 10872 10875 10878 10880 10881 10881 10881 10883 10886 10886 10885 10886 10888 10888 10889 10891 10891 10891 10890 10889 10889 10889 10889 10889 10889 10888 10888 10887 10886 10885 10883 10882 10881 10881 10880 10879 10878 10877 10876 10876 10875 10874 10873 10873 10873 10872 10871 10870 10867 10866 10864 10864 10862 10861 10859 10857 10855 10854 10853 10852 10850 10848
10806 10809 10814 10822 10828 10831 10834 10839 10843 10847 10853 10858 10861 10864 10866 10866 10865 10865 10865 10866 10866 10866 10866 10868 10871 10872 10874 10876 10876 10876 10878 10881 10882 10881 10881 10882 10882 10883 10884 10884 10883 10882 10882 10882 10882 10882 10882 10881 10881 10881 10881 10881 10879 10878 10877 10876 10875 10874 10874 10873 10872 10871 10870 10870 10869 10869 10869 10869 10868 10867 10865 10863 10862 10860 10859 10857 10856 10854 10852 10850 10848 10847 10846 10844 10843
10798 10802 10806 10813 10820 10824 10828 10830 10834 10838 10844 10849 10853 10856 10857 10858 10858 10858 10859 10860 10861 10860 10861 10863 10865 10866 10868 10870 10871 10872 10874 10876 10878 10878 10878 10878 10878 10876 10876 10876 10875 10875 10875 10875 10875 10875 10874 10874 10874 10874 10874 10874 10873 10872 10871 10870 10870 10869 10869 10867 10864 10864 10865 10865 10864 10864 10864 10864 10863 10862 10860 10858 10856 10854 10853 10851 10849 10848 10846 10844 10842 10841 10839 10837 10836
10791 10795 10800 10806 10813 10818 10822 10825 10828 10832 10838 10843 10846 10848 10850 10851 10851 10852 10853 10855 10855 10855 10856 10857 10858 10860 10862 10864 10865 10867 10869 10872 10874 10874 10874 10874 10872 10869 10868 10868 10868 10868 10867 10867 10867 10867 10867 10867 10867 10867 10866 10866 10866 10865 10865 10864 10864 10864 10864 10861 10856 10855 10857 10858 10858 10858 10859 10858 10858 10857 10855 10852 10851 10849 10847 10845 10843 10841 10839 10838 10836 10834 10832 10830 10829
10784 10787 10792 10799 10806 10812 10816 10821 10824 10827 10831 10836 10838 10840 10842 10844 10846 10847 10849 10851 10851 10851 10851 10852 10852 10853 10854 10855 10857 10859 10863 10866 10869 10870 10869 10868 10866 10863 10862 10861 10860 10860 10860 10860 10860 10860 10859 10859 10859 10859 10858 10858 10858 10857 10857 10857 10857 10858 10861 10860 10856 10853 10852 10852 10852 10852 10852 10852 10851 10850 10849 10847 10845 10843 10841 10839 10837 10835 10833 10831 10829 10827 10825 10823 10822
10775 10780 10786 10793 10800 10806 10810 10815 10818 10821 10824 10828 10830 10833 10835 10837 10840 10843 10845 10846 10846 10845 10845 10845 10845 10845 10845 10845 10846 10849 10855 10860 10863 10863 10861 10859 10857 10855 10854 10853 10853 10852 10852 10852 10852 10851 10851 10851 10851 10850 10850 10850 10850 10849 10849 10849 10849 10850 10852 10854 10853 10849 10847 10845 10845 10845 10845 10844 10843 10842 10841 10839 10837 10835 10833 10831 10829 10827 10825 10823 10821 10819 10817 10816 10814
10767 10773 10779 10786 10793 10799 10805 10810 10813 10815 10816 10820 10823 10827 10830 10833 10836 10839 10840 10840 10840 10841 10840 10839 10837 10836 10836 10837 10837 10839 10845 10852 10855 10854 10851 10848 10847 10846 10846 10846 10845 10844 10844 10843 10843 10843 10843 10842 10842 10841 10841 10842 10842 10841 10840 10840 10840 10840 10840 10841 10841 10840 10838 10837 10836 10836 10836 10836 10835 10833 10832 10830 10829 10827 10825 10823 10821 10820 10818 10815 10813 10811 10809 10807 10805
10758 10765 10771 10778 10785 10792 10799 10805 10808 10808 10810 10814 10818 10822 10826 10829 10831 10833 10833 10834 10835 10836 10834 10832 10830 10828 10828 10830 10831 10831 10834 10839 10842 10841 10839 10838 10838 10838 10839 10838 10837 10836 10835 10835 10835 10834 10834 10834 10833 10833 10832 10832 10832 10832 10832 10831 10830 10830 10829 10829 10829 10829 10828 10827 10827 10827 10827 10826 10826 10825 10823 10821 10820 10819 10817 10815 10813 10812 10810 10808 10806 10804 10801 10799 10797
10750 10755 10761 10769 10777 10784 10791 10797 10801 10802 10804 10809 10813 10817 10821 10825 10826 10827 10828 10829 10831 10832 10831 10828 10825 10823 10824 10825 10826 10825 10825 10827 10827 10826 10827 10829 10830 10831 10830 10829 10828 10827 10827 10826 10825 10825 10825 10825 10825 10824 10824 10824 10823 10823 10823 10822 10821 10821 10820 10819 10819 10818 10818 10817 10817 10817 10817 10817 10816 10815 10814 10813 10811 10810 10808 10807 10805 10803 10802 10800 10798 10796 10793 10791 10789
10741 10746 10752 10759 10768 10775 10782 10789 10794 10796 10799 10804 10808 10811 10815 10819 10822 10823 10823 10825 10827 10828 10828 10825 10822 10819 10818 10818 10818 10817 10817 10818 10818 10817 10819 10821 10822 10822 10821 10820 10819 10818 10817 10817 10816 10816 10816 10816 10816 10816 10815 10815 10814 10814 10814 10813 10812 10811 10811 10810 10809 10809 10808 10807 10807 10807 10808 10808 10807 10806 10805 10803 10802 10800 10799 10797 10796 10794 10792 10790 10788 10786 10784 10782 10780
10731 10737 10743 10751 10759 10767 10773 10780 10785 10788 10791 10796 10802 10805 10808 10812 10816 10818 10820 10821 10822 10822 10820 10816 10814 10812 10810 10810 10810 10811 10811 10810 10810 10810 10811 10812 10812 10812 10812 10811 10810 10808 10808 10807 10807 10807 10806 10807 10807 10807 10807 10806 10806 10805 10805 10804 10803 10802 10801 10800 10800 10799 10798 10798 10797 10798 10798 10798 10797 10796 10795 10794 10792 10790 10789 10787 10785 10783 10781 10779 10778 10776 10773 10771 10768
10721 10727 10734 10742 10750 10757 10764 10770 10775 10779 10783 10788 10792 10794 10796 10799 10803 10806 10810 10813 10814 10814 10812 10809 10807 10807 10807 10808 10808 10808 10805 10802 10802 10802 10803 10803 10803 10803 10803 10802 10801 10799 10798 10797 10796 10796 10797 10797 10798 10798 10798 10798 10797 10797 10796 10796 10795 10793 10792 10791 10791 10790 10789 10788 10788 10788 10788 10788 10787 10786 10785 10784 10782 10780 10778 10777 10775 10773 10771 10768 10766 10764 10762 10760 10757
10711 10717 10724 10731 10738 10746 10753 10758 10763 10767 10772 10776 10779 10782 10785 10788 10791 10793 10795 10798 10800 10802 10803 10803 10801 10801 10802 10803 10802 10800 10798 10796 10795 10794 10794 10794 10793 10793 10792 10791 10790 10788 10787 10786 10786 10786 10787 10788 10789 10789 10788 10788 10788 10787 10787 10786 10785 10784 10783 10782 10781 10780 10779 10778 10778 10778 10777 10777 10777 10776 10775 10773 10771 10770 10768 10766 10764 10761 10759 10757 10754 10752 10750 10748 10745